#timestamp,LO_Frequency,Hit,StdDev 
1646355615.9,286047002.5,N
1646355635.7,286046999.7,N
1646355655.6,286047001.4,N
1646355675.4,286047001.6,N
1646355695.2,286047001.3,N
1646355715.1,286047001.3,N
1646355716.0,286047001.3,N
1646355735.8,286047003.5,N
1646355755.6,286047005.9,Y
1646355775.5,286047002.0,P
1646355795.3,286047001.5,P
1646355815.2,286047002.7,P
1646355835.9,286047002.0,Y
1646355855.7,286046999.0,P
1646355875.6,286046999.2,N
1646355895.4,286046995.5,P
1646355915.2,286046998.0,N
1646355935.1,286046999.1,N
1646355936.0,286046999.1,N
1646355955.8,286046999.5,N
1646355975.7,286046998.9,N
1646355995.5,286046999.4,N
1646356015.3,286046997.1,N
1646356035.2,286046995.0,Y
1646356055.0,286046996.7,P
1646356055.9,286046996.7,P
1646356075.8,286046998.6,N
1646356095.6,286047000.2,N
1646356115.4,286047002.7,N
1646356135.3,286047000.8,N
1646356155.1,286047000.1,N
1646356175.8,286047000.9,N
1646356195.7,286046999.8,N
1646356215.5,286047002.8,N
1646356235.4,286047002.7,N
1646356255.2,286046998.5,N
1646356275.0,286047001.2,N
1646356275.9,286047001.2,N
1646356295.8,286047002.8,N
1646356315.6,286047002.7,N
1646356335.4,286047000.9,N
1646356355.3,286047002.4,N
1646356375.1,286047000.0,N
1646356395.9,286046997.0,N
1646356415.7,286046998.9,N
1646356435.5,286046999.7,N
1646356455.4,286047000.2,N
1646356475.2,286047000.1,N
1646356495.0,286047002.8,N
1646356495.9,286047002.8,N
1646356515.8,286047001.0,N
1646356535.6,286047002.7,N
1646356555.5,286047001.8,N
1646356575.3,286047002.5,N
1646356595.1,286047002.3,N
1646356615.9,286047001.5,N
1646356635.7,286047001.3,N
1646356655.5,286047002.1,N
1646356675.4,286047002.1,N
1646356695.2,286047004.0,N
1646356715.1,286047001.9,N
1646356716.0,286047001.9,N
1646356735.8,286047004.3,N
1646356755.6,286046999.8,N
1646356775.5,286047001.3,N
1646356795.3,286047001.8,N
1646356815.1,286047002.4,N
1646356835.9,286046999.8,N
1646356855.7,286047001.5,N
1646356875.6,286046999.7,N
1646356895.4,286046999.9,N
1646356915.2,286047002.7,N
1646356935.1,286047002.5,N
1646356936.0,286047002.5,N
1646356955.8,286046999.8,N
1646356975.7,286047001.4,N
1646356995.5,286047002.1,N
1646357015.3,286047002.0,N
1646357035.2,286047002.7,N
1646357055.0,286047002.1,N
1646357055.9,286047002.1,N
1646357075.7,286047002.3,N
1646357095.6,286047002.1,N
1646357115.4,286047002.5,N
1646357135.3,286047000.1,N
1646357155.1,286046999.9,N
1646357156.0,286046999.9,N
1646357175.8,286047000.0,N
1646357195.7,286047001.0,N
1646357215.5,286047001.2,N
1646357235.3,286046998.5,N
1646357255.2,286046999.6,N
1646357275.0,286047000.8,N
1646357275.9,286047000.8,N
1646357295.8,286046999.9,N
1646357315.6,286046998.2,N
1646357335.4,286046999.9,N
1646357355.3,286047000.4,N
1646357375.1,286047002.0,N
1646357395.8,286046999.8,N
1646357415.7,286047002.3,N
1646357435.5,286046999.9,N
1646357455.4,286047002.8,N
1646357475.2,286047001.1,N
1646357495.0,286047000.7,N
1646357495.9,286047000.7,N
1646357515.8,286047002.5,N
1646357535.6,286047001.6,N
1646357555.4,286047003.1,N
1646357575.3,286047001.7,N
1646357595.1,286047004.4,Y
1646357615.9,286047002.0,P
1646357635.7,286047001.8,P
1646357655.5,286047000.4,N
1646357675.4,286047000.2,N
1646357695.2,286047002.8,Y
1646357715.1,286047000.7,P
1646357716.0,286047000.7,P
1646357735.8,286047000.9,P
1646357755.6,286047000.6,Y
1646357775.5,286047000.7,P
1646357795.3,286046999.4,P
1646357815.2,286046996.9,P
1646357835.9,286046999.0,N
1646357855.7,286047000.9,N
1646357875.6,286047000.3,N
1646357895.4,286047001.1,N
1646357915.2,286047002.3,N
1646357935.1,286047000.6,N
1646357936.0,286047000.6,N
1646357955.8,286047000.8,N
1646357975.7,286047000.5,N
1646357995.5,286046999.8,N
1646358015.3,286047001.9,N
1646358035.2,286047000.0,N
1646358055.0,286046999.9,N
1646358055.9,286046999.9,N
1646358075.8,286047001.2,N
1646358095.6,286046999.4,N
1646358115.4,286047001.2,N
1646358135.3,286047001.1,N
1646358155.1,286046998.3,N
1646358175.9,286046999.3,N
1646358195.7,286046996.9,N
1646358215.5,286046997.2,N
1646358235.4,286046999.4,N
1646358255.2,286046999.4,N
1646358275.1,286046998.9,N
1646358276.0,286046998.9,N
1646358295.8,286046998.4,N
1646358315.6,286046998.4,N
1646358335.5,286047001.0,N
1646358355.3,286046998.3,N
1646358375.1,286047000.8,N
1646358395.9,286046998.8,N
1646358415.7,286047000.6,N
1646358435.6,286046999.7,N
1646358485.4,286046998.8,E
1646358495.4,286046998.2,N
1646358515.2,286047000.4,P
1646358535.0,286046999.8,N
1646358535.9,286046999.8,N
1646358555.8,286047002.6,Y
1646358575.6,286047000.2,P
1646358595.5,286047001.2,P
1646358615.3,286047002.5,P
1646358635.1,286047002.3,N
1646358655.9,286046998.2,N
1646358675.7,286046999.9,N
1646358695.5,286046998.2,N
1646358715.4,286046998.4,N
1646358735.2,286046998.6,N
1646358755.1,286046997.0,N
1646358756.0,286046997.0,N
1646358775.8,286046998.7,N
1646358795.6,286046999.4,N
1646358815.5,286046996.6,N
1646358835.3,286046999.5,N
1646358855.2,286046997.1,N
1646358875.9,286046994.9,N
1646358895.7,286046998.0,N
1646358915.6,286046996.8,N
1646358935.4,286046995.4,N
1646358955.2,286046997.8,N
1646358975.1,286046996.1,N
1646358976.0,286046996.1,N
1646358995.8,286046997.6,N
1646359015.7,286046995.2,N
1646359035.5,286046994.1,N
1646359055.3,286046991.9,Y
1646359075.2,286046993.4,P
1646359095.0,286046993.4,N
1646359095.9,286046993.4,P
1646359115.8,286046997.4,N
1646359135.6,286046996.2,N
1646359155.4,286046995.4,N
1646359175.3,286046997.9,N
1646359195.1,286046993.8,Y
